NOAA 11 DEB

Satellite information

Favourite Embed

Satellite Type and Status

DEBRISIN ORBIT

Key statistics

Satellite NOAA 11 DEB at a glance.

Uptime

13435

Days in orbit

Revolutions

≈ 14.3

Per day

Orbit

SSO

Sun Synchronous Orbit

Inclination

98.5

Latest

Satellite identification and parameters

Extended collection of information and parameters for NOAA 11 DEB.

Object identification

Identified? True

Debris? True

Object name: NOAA 11 DEB

International designator: 1988-089E

Object number (NORAD): 37242

Object ID (CCSDS): 37242

Country: UNITED STATES OF AMERICA (US)

Current information (Y/N): Y

RCS size: MEDIUM

Orbital parameters

Period: 100.791 minutes

Inclination: 98.4881 deg

SMA: 7174.239 km

Apoapsis: 806.681 km

Periapsis: 785.528 km

RAAN: 166.6883 deg

Eccentricy: 0.0014742

Argument of periapsis: 47.3566 deg

Mean anomaly: 312.8856 deg

Mean motion: 14.28693146 rev/day

Mean motion (dot): 0.00002529 rev/day2

B* drag term: 0.0010213 1/REarth

Two-line elements (TLE)

Creation date: July 6, 2025, 6:05 p.m.

Reference frame: TEME

Reference center: EARTH

Epoch: July 6, 2025, 12:52 p.m. UTC

TLE line 0: 0 NOAA 11 DEB

TLE line 1: 1 37242U 88089E 25187.53640178 .00002529 00000-0 10213-2 0 9995

TLE line 2: 2 37242 98.4881 166.6883 0014742 47.3566 312.8856 14.28693146900348

Live tracking on map

Real-time ground track for satellite NOAA 11 DEB.

In-orbit conjunctions

A list of the most updated potential collisions computed for object NOAA 11 DEB.

Target Orbit TCA Probability of collision Miss distance Type
THOR ABLESTAR DEB LEO 2024-11-01 02:28:10 0.0001086519 262.0 (m) DEBRIS
SAPPHIRE LEO 2024-10-13 11:09:33 0.0002045796 808.0 (m) PAYLOAD
SL-24 R/B SSO 2024-10-03 20:46:17 0.0009056335 275.0 (m) ROCKET BODY

Associated space launch

Fourth generation NOAA meteorological satellite

NOAA 11 DEB was lifted into orbit during the mission ‘Atlas E | NOAA 11’, on board a Atlas E space rocket.

The launch took place on Sept. 24, 1988, 10:02 a.m. from Space Launch Complex 3W.

For more information about the launch, click the button.

Launch to space Atlas E | NOAA 11
Atlas E | NOAA 11

Agency: N/A

Status: Launch Successful

Launch date: Sept. 24, 1988, 10:02 a.m. UTC

Rocket: Atlas E

Launch pad: Space Launch Complex 3W

Location: Vandenberg SFB, CA, USA

...

Latest news about this satellite

There are no fresh news available about this satellite. Check back as we update our databases every day.


Newsletter sign-up

Weekly statistics, charts and insights to help you stay on top of the space industry.